| time (UTC) | temp F | wind direction | speed MPH | gust MPH | rain 1hr in | rain 24hr in | rain mn in | humidity % | barometer mb |
| 20260507012224 | 50 | 181 | 12.0 | 26.0 | 0.02 | 0.56 | 0.56 | 95 | 1004.0 |
| 20260507011203 | 50 | 171 | 11.0 | 23.0 | 0.01 | 0.55 | 0.55 | 95 | 1004.1 |
| 20260507010203 | 50 | 175 | 9.0 | 22.0 | 0.00 | 0.54 | 0.54 | 95 | 1004.2 |
| 20260507005202 | 50 | 187 | 12.0 | 26.0 | 0.04 | 0.54 | 0.54 | 95 | 1004.2 |
| 20260507004225 | 50 | 179 | 13.0 | 24.0 | 0.03 | 0.53 | 0.53 | 95 | 1004.4 |
| 20260507003203 | 50 | 178 | 13.0 | 34.0 | 0.02 | 0.52 | 0.52 | 95 | 1004.4 |
| 20260507002224 | 50 | 167 | 12.0 | 23.0 | 0.01 | 0.51 | 0.51 | 95 | 1004.3 |
| 20260507001203 | 50 | 175 | 13.0 | 24.0 | 0.00 | 0.50 | 0.50 | 95 | 1004.5 |
| 20260507000205 | 50 | 176 | 13.0 | 26.0 | 0.00 | 0.50 | 0.50 | 95 | 1004.5 |
| 20260506235202 | 50 | 175 | 15.0 | 29.0 | 0.09 | 0.50 | 0.50 | 95 | 1004.6 |
| 20260506234203 | 50 | 176 | 13.0 | 26.0 | 0.08 | 0.49 | 0.49 | 95 | 1004.7 |
| 20260506233204 | 50 | 173 | 13.0 | 25.0 | 0.07 | 0.48 | 0.48 | 95 | 1004.9 |
| 20260506232202 | 50 | 169 | 11.0 | 24.0 | 0.05 | 0.46 | 0.46 | 94 | 1004.9 |
| 20260506231203 | 51 | 177 | 12.0 | 23.0 | 0.02 | 0.43 | 0.43 | 95 | 1005.0 |
| 20260506230203 | 51 | 184 | 11.0 | 25.0 | 0.00 | 0.41 | 0.41 | 95 | 1005.0 |
| 20260506225203 | 51 | 179 | 11.0 | 22.0 | 0.26 | 0.39 | 0.39 | 94 | 1005.1 |
| 20260506224202 | 51 | 185 | 13.0 | 30.0 | 0.23 | 0.36 | 0.36 | 94 | 1005.2 |
| 20260506223203 | 51 | 175 | 11.0 | 27.0 | 0.19 | 0.32 | 0.32 | 94 | 1005.3 |
| 20260506222203 | 51 | 182 | 13.0 | 24.0 | 0.14 | 0.27 | 0.27 | 94 | 1005.6 |
| 20260506221202 | 51 | 179 | 13.0 | 27.0 | 0.05 | 0.18 | 0.18 | 94 | 1005.4 |
| 20260506220203 | 51 | 185 | 12.0 | 25.0 | 0.00 | 0.13 | 0.13 | 94 | 1005.7 |
| 20260506215203 | 52 | 187 | 10.0 | 24.0 | 0.06 | 0.12 | 0.12 | 94 | 1005.8 |
| 20260506214203 | 52 | 190 | 11.0 | 24.0 | 0.03 | 0.09 | 0.09 | 94 | 1005.8 |
| 20260506213203 | 52 | 184 | 11.0 | 24.0 | 0.02 | 0.08 | 0.08 | 94 | 1005.8 |
| 20260506212202 | 52 | 186 | 11.0 | 28.0 | 0.01 | 0.07 | 0.07 | 93 | 1005.9 |
| 20260506211203 | 52 | 182 | 11.0 | 25.0 | 0.00 | 0.06 | 0.06 | 94 | 1005.8 |
| 20260506205203 | 53 | 197 | 11.0 | 22.0 | 0.04 | 0.05 | 0.05 | 93 | 1006.0 |
| 20260506204203 | 53 | 205 | 12.0 | 22.0 | 0.03 | 0.04 | 0.04 | 93 | 1006.1 |
| 20260506203202 | 52 | 196 | 10.0 | 26.0 | 0.03 | 0.04 | 0.04 | 93 | 1005.8 |
| 20260506202203 | 53 | 192 | 10.0 | 21.0 | 0.02 | 0.03 | 0.03 | 93 | 1006.3 |
| 20260506201224 | 53 | 204 | 13.0 | 24.0 | 0.01 | 0.02 | 0.02 | 92 | 1006.5 |
| 20260506200202 | 53 | 192 | 10.0 | 22.0 | 0.01 | 0.02 | 0.02 | 92 | 1006.2 |
| 20260506195203 | 53 | 198 | 8.0 | 20.0 | 0.00 | 0.00 | 0.00 | 92 | 1006.2 |
| 20260506194203 | 53 | 201 | 8.0 | 25.0 | 0.00 | 0.00 | 0.00 | 90 | 1006.1 |
| 20260506193202 | 53 | 193 | 12.0 | 26.0 | 0.00 | 0.00 | 0.00 | 89 | 1006.0 |
| 20260506192203 | 53 | 180 | 12.0 | 26.0 | 0.00 | 0.00 | 0.00 | 88 | 1005.6 |
| 20260506191203 | 53 | 189 | 10.0 | 27.0 | 0.00 | 0.00 | 0.00 | 88 | 1005.7 |
| 20260506190202 | 53 | 191 | 13.0 | 28.0 | 0.00 | 0.00 | 0.00 | 87 | 1006.0 |
| 20260506185203 | 54 | 187 | 10.0 | 24.0 | 0.00 | 0.00 | 0.00 | 87 | 1006.2 |
| 20260506184203 | 54 | 200 | 9.0 | 20.0 | 0.00 | 0.00 | 0.00 | 87 | 1006.4 |
| 20260506183202 | 54 | 185 | 10.0 | 25.0 | 0.00 | 0.00 | 0.00 | 86 | 1006.5 |
| 20260506182203 | 55 | 182 | 9.0 | 22.0 | 0.00 | 0.00 | 0.00 | 85 | 1006.7 |
| 20260506181202 | 54 | 189 | 10.0 | 25.0 | 0.00 | 0.00 | 0.00 | 86 | 1006.8 |
| 20260506180203 | 54 | 198 | 8.0 | 18.0 | 0.00 | 0.00 | 0.00 | 87 | 1006.9 |
| 20260506175202 | 54 | 193 | 5.0 | 14.0 | 0.00 | 0.00 | 0.00 | 87 | 1006.9 |
| 20260506174203 | 54 | 202 | 10.0 | 19.0 | 0.00 | 0.00 | 0.00 | 86 | 1007.1 |
| 20260506173224 | 54 | 203 | 8.0 | 18.0 | 0.00 | 0.00 | 0.00 | 86 | 1007.2 |
| 20260506172202 | 54 | 209 | 9.0 | 19.0 | 0.00 | 0.00 | 0.00 | 85 | 1007.3 |
| 20260506171203 | 54 | 198 | 9.0 | 16.0 | 0.00 | 0.00 | 0.00 | 85 | 1007.5 |
| 20260506170203 | 55 | 209 | 7.0 | 16.0 | 0.00 | 0.00 | 0.00 | 85 | 1007.8 |
| 20260506165203 | 54 | 210 | 6.0 | 18.0 | 0.00 | 0.00 | 0.00 | 85 | 1007.9 |
| 20260506164203 | 55 | 205 | 9.0 | 17.0 | 0.00 | 0.00 | 0.00 | 84 | 1008.0 |
| 20260506163245 | 56 | 204 | 7.0 | 21.0 | 0.00 | 0.00 | 0.00 | 85 | 1008.3 |
| 20260506162203 | 55 | 212 | 7.0 | 15.0 | 0.00 | 0.00 | 0.00 | 85 | 1008.4 |
| 20260506161203 | 54 | 213 | 7.0 | 15.0 | 0.00 | 0.00 | 0.00 | 86 | 1008.5 |
| 20260506160202 | 54 | 220 | 6.0 | 14.0 | 0.00 | 0.00 | 0.00 | 85 | 1008.8 |
| 20260506155203 | 54 | 218 | 4.0 | 22.0 | 0.00 | 0.00 | 0.00 | 86 | 1008.9 |
| 20260506154223 | 55 | 202 | 11.0 | 20.0 | 0.00 | 0.00 | 0.00 | 84 | 1008.8 |
| 20260506153203 | 56 | 217 | 6.0 | 16.0 | 0.00 | 0.00 | 0.00 | 83 | 1008.8 |
| 20260506152203 | 57 | 194 | 10.0 | 25.0 | 0.00 | 0.00 | 0.00 | 82 | 1008.6 |
| 20260506151203 | 56 | 200 | 12.0 | 23.0 | 0.00 | 0.00 | 0.00 | 84 | 1008.4 |
| 20260506150203 | 57 | 201 | 10.0 | 24.0 | 0.00 | 0.00 | 0.00 | 83 | 1008.3 |
| 20260506145202 | 57 | 204 | 7.0 | 17.0 | 0.00 | 0.00 | 0.00 | 83 | 1008.4 |
| 20260506144224 | 56 | 194 | 8.0 | 18.0 | 0.00 | 0.00 | 0.00 | 84 | 1008.5 |
| 20260506143203 | 55 | 206 | 6.0 | 13.0 | 0.00 | 0.00 | 0.00 | 84 | 1008.9 |
| 20260506142202 | 54 | 249 | 5.0 | 13.0 | 0.00 | 0.00 | 0.00 | 86 | 1009.1 |
| 20260506141203 | 54 | 201 | 5.0 | 14.0 | 0.00 | 0.00 | 0.00 | 86 | 1009.0 |
| 20260506140202 | 54 | 199 | 9.0 | 20.0 | 0.00 | 0.00 | 0.00 | 87 | 1008.9 |
| 20260506135203 | 54 | 199 | 6.0 | 12.0 | 0.00 | 0.00 | 0.00 | 88 | 1009.1 |
| 20260506134202 | 53 | 228 | 4.0 | 9.0 | 0.00 | 0.00 | 0.00 | 88 | 1009.1 |
| 20260506133204 | 52 | 208 | 5.0 | 16.0 | 0.00 | 0.00 | 0.00 | 88 | 1008.9 |
| 20260506132202 | 53 | 224 | 4.0 | 14.0 | 0.00 | 0.00 | 0.00 | 87 | 1009.0 |
| 20260506131203 | 54 | 203 | 3.0 | 12.0 | 0.00 | 0.00 | 0.00 | 89 | 1008.6 |
| 20260506130224 | 53 | 225 | 4.0 | 15.0 | 0.00 | 0.00 | 0.00 | 89 | 1008.6 |
| 20260506125202 | 54 | 211 | 7.0 | 17.0 | 0.00 | 0.00 | 0.00 | 87 | 1008.8 |
| 20260506124203 | 52 | 207 | 5.0 | 10.0 | 0.00 | 0.00 | 0.00 | 90 | 1008.9 |
| 20260506123202 | 52 | 223 | 4.0 | 10.0 | 0.00 | 0.00 | 0.00 | 89 | 1009.0 |
| 20260506122224 | 52 | 213 | 3.0 | 16.0 | 0.00 | 0.00 | 0.00 | 90 | 1008.8 |
| 20260506121202 | 52 | 194 | 4.0 | 13.0 | 0.00 | 0.00 | 0.00 | 90 | 1008.9 |
| 20260506120203 | 52 | 204 | 4.0 | 10.0 | 0.00 | 0.00 | 0.00 | 90 | 1009.4 |
| 20260506115203 | 51 | 215 | 4.0 | 10.0 | 0.00 | 0.00 | 0.00 | 90 | 1009.0 |
| 20260506114203 | 51 | 247 | 8.0 | 13.0 | 0.00 | 0.00 | 0.00 | 90 | 1009.5 |
| 20260506113204 | 51 | 238 | 8.0 | 14.0 | 0.00 | 0.00 | 0.00 | 90 | 1009.3 |
| 20260506112202 | 51 | 244 | 5.0 | 14.0 | 0.00 | 0.00 | 0.00 | 90 | 1009.3 |
| 20260506111203 | 51 | 220 | 4.0 | 12.0 | 0.00 | 0.00 | 0.00 | 90 | 1009.1 |
| 20260506110203 | 51 | 229 | 4.0 | 11.0 | 0.00 | 0.00 | 0.00 | 90 | 1009.1 |
| 20260506105203 | 51 | 203 | 4.0 | 12.0 | 0.00 | 0.00 | 0.00 | 90 | 1008.9 |
| 20260506104203 | 51 | 234 | 5.0 | 10.0 | 0.00 | 0.00 | 0.00 | 91 | 1009.2 |
| 20260506103203 | 50 | 223 | 5.0 | 11.0 | 0.00 | 0.00 | 0.00 | 91 | 1009.0 |
| 20260506102203 | 50 | 220 | 4.0 | 13.0 | 0.00 | 0.00 | 0.00 | 92 | 1009.0 |
| 20260506101202 | 49 | 251 | 4.0 | 10.0 | 0.00 | 0.00 | 0.00 | 92 | 1008.9 |
| 20260506100224 | 49 | 240 | 3.0 | 10.0 | 0.00 | 0.00 | 0.00 | 92 | 1008.8 |
| 20260506095203 | 49 | 239 | 4.0 | 10.0 | 0.00 | 0.00 | 0.00 | 92 | 1008.8 |
| 20260506094202 | 49 | 225 | 4.0 | 11.0 | 0.00 | 0.00 | 0.00 | 92 | 1008.6 |
| 20260506093203 | 49 | 245 | 4.0 | 10.0 | 0.00 | 0.00 | 0.00 | 91 | 1008.8 |
| 20260506092202 | 49 | 242 | 4.0 | 11.0 | 0.00 | 0.00 | 0.00 | 91 | 1008.7 |
| 20260506091203 | 49 | 250 | 4.0 | 9.0 | 0.00 | 0.00 | 0.00 | 91 | 1008.6 |
| 20260506090202 | 49 | 236 | 5.0 | 10.0 | 0.00 | 0.00 | 0.00 | 91 | 1008.5 |
| 20260506085203 | 49 | 211 | 5.0 | 9.0 | 0.00 | 0.00 | 0.00 | 90 | 1008.5 |
| 20260506083203 | 49 | 251 | 4.0 | 10.0 | 0.00 | 0.00 | 0.00 | 90 | 1008.5 |
| 20260506082203 | 50 | 217 | 5.0 | 13.0 | 0.00 | 0.00 | 0.00 | 89 | 1008.5 |
| 20260506081203 | 51 | 216 | 5.0 | 16.0 | 0.00 | 0.00 | 0.00 | 88 | 1008.3 |
| 20260506080202 | 52 | 212 | 5.0 | 17.0 | 0.00 | 0.00 | 0.00 | 88 | 1008.3 |
| 20260506073203 | 52 | 209 | 8.0 | 20.0 | 0.00 | 0.00 | 0.00 | 88 | 1007.7 |
| 20260506072203 | 51 | 210 | 6.0 | 19.0 | 0.00 | 0.00 | 0.00 | 89 | 1007.8 |
| 20260506071203 | 50 | 242 | 3.0 | 15.0 | 0.00 | 0.00 | 0.00 | 89 | 1007.8 |
| 20260506070203 | 50 | 238 | 6.0 | 13.0 | 0.00 | 0.00 | 0.00 | 88 | 1007.9 |
| 20260506062202 | 50 | 240 | 5.0 | 13.0 | 0.00 | 0.00 | 0.00 | 87 | 1007.8 |
| 20260506061224 | 50 | 235 | 4.0 | 12.0 | 0.00 | 0.00 | 0.00 | 88 | 1007.7 |
| 20260506051224 | 50 | 237 | 6.0 | 15.0 | 0.00 | 0.00 | 0.00 | 87 | 1007.9 |
| 20260506050203 | 50 | 233 | 6.0 | 16.0 | 0.00 | 0.00 | 0.00 | 86 | 1008.0 |
| 20260506044203 | 50 | 207 | 5.0 | 13.0 | 0.00 | 0.00 | 0.00 | 88 | 1007.6 |
| 20260506043224 | 50 | 233 | 6.0 | 15.0 | 0.00 | 0.00 | 0.00 | 88 | 1007.8 |
| 20260506042225 | 50 | 235 | 6.0 | 12.0 | 0.00 | 0.00 | 0.00 | 89 | 1007.8 |
| 20260506041203 | 50 | 234 | 6.0 | 15.0 | 0.00 | 0.00 | 0.00 | 89 | 1007.8 |
| 20260506040224 | 50 | 242 | 6.0 | 15.0 | 0.00 | 0.00 | 0.00 | 89 | 1007.7 |
| 20260506035202 | 50 | 246 | 8.0 | 16.0 | 0.00 | 0.00 | 0.00 | 89 | 1007.8 |
| 20260506034203 | 50 | 238 | 6.0 | 12.0 | 0.00 | 0.00 | 0.00 | 87 | 1007.8 |
| 20260506033202 | 50 | 220 | 4.0 | 13.0 | 0.00 | 0.00 | 0.00 | 85 | 1007.7 |
| 20260506032203 | 50 | 236 | 6.0 | 13.0 | 0.00 | 0.00 | 0.00 | 85 | 1007.7 |
| 20260506031202 | 51 | 234 | 5.0 | 12.0 | 0.00 | 0.00 | 0.00 | 84 | 1007.8 |
| 20260506030203 | 51 | 239 | 5.0 | 10.0 | 0.00 | 0.00 | 0.00 | 84 | 1007.7 |
| 20260506025202 | 51 | 230 | 4.0 | 10.0 | 0.00 | 0.00 | 0.00 | 84 | 1007.6 |
| 20260506024224 | 51 | 214 | 5.0 | 11.0 | 0.00 | 0.00 | 0.00 | 84 | 1007.8 |
| 20260506023203 | 52 | 237 | 4.0 | 9.0 | 0.00 | 0.00 | 0.00 | 83 | 1007.9 |
| 20260506022202 | 53 | 236 | 6.0 | 13.0 | 0.00 | 0.00 | 0.00 | 82 | 1008.0 |
| 20260506021224 | 53 | 219 | 5.0 | 12.0 | 0.00 | 0.00 | 0.00 | 83 | 1007.9 |
| 20260506020224 | 52 | 227 | 4.0 | 12.0 | 0.00 | 0.00 | 0.00 | 83 | 1007.9 |
| 20260506015203 | 52 | 217 | 4.0 | 8.0 | 0.00 | 0.00 | 0.00 | 83 | 1008.1 |
| 20260506014245 | 52 | 254 | 3.0 | 11.0 | 0.00 | 0.00 | 0.00 | 82 | 1008.2 |
| 20260506013203 | 52 | 255 | 5.0 | 10.0 | 0.00 | 0.00 | 0.00 | 82 | 1008.2 |